Location: Cella
(44.7333°N, 10.5667°E)
Time: 12:56:24
(UTC+00:00)

COSMOS 1867 COOLANT - Pass Details

Date: 25 September 2021
Orbit: 770 x 802 km, 65.0° (Epoch: 15 October)

Event Time Altitude Azimuth Distance (km) Brightness Sun altitude
Rises 17:52:16 0° 327° (NNW) 3,320 ? -8.4°
Reaches altitude 10° 17:56:35 10° 359° (N) 2,388 ? -9.2°
Maximum altitude 17:58:32 12° 20° (NNE) 2,260 ? -9.5°
Drops below altitude 10° 18:00:30 10° 42° (NE) 2,384 ? -9.9°
Enters shadow 18:02:35 - 60° (ENE) 2,752 ? -10.3°
